| time (UTC) | temp F | wind direction | speed MPH | gust MPH | rain 1hr in | rain 24hr in | rain mn in | humidity % | barometer mb |
| 20260901045353 | 71 | 232 | 0.0 | 0.0 | 0.00 | 0.00 | 0.00 | 99 | 1052.7 |
| 20260901044849 | 71 | 234 | 0.0 | 0.0 | 0.00 | 0.00 | 0.00 | 99 | 1052.5 |
| 20260901044345 | 71 | 234 | 0.0 | 0.0 | 0.00 | 0.00 | 0.00 | 99 | 1052.3 |
| 20260901043841 | 70 | 234 | 0.0 | 0.0 | 0.00 | 0.00 | 0.00 | 99 | 1052.5 |
| 20260901043337 | 70 | 234 | 0.0 | 0.0 | 0.00 | 0.00 | 0.00 | 99 | 1052.4 |
| 20260901042836 | 70 | 234 | 0.0 | 0.0 | 0.00 | 0.00 | 0.00 | 99 | 1052.5 |
| 20260901042331 | 70 | 234 | 0.0 | 0.0 | 0.00 | 0.00 | 0.00 | 99 | 1052.6 |
| 20260901041826 | 71 | 234 | 0.0 | 0.0 | 0.00 | 0.00 | 0.00 | 99 | 1052.2 |
| 20260901041321 | 71 | 234 | 0.0 | 0.0 | 0.00 | 0.00 | 0.00 | 99 | 1052.3 |
| 20260901040816 | 71 | 234 | 0.0 | 0.0 | 0.00 | 0.00 | 0.00 | 99 | 1052.2 |
| 20260901040315 | 71 | 234 | 0.0 | 0.0 | 0.00 | 0.00 | 0.00 | 99 | 1052.0 |
| 20260901035814 | 71 | 234 | 0.0 | 0.0 | 0.00 | 0.00 | 0.00 | 99 | 1052.3 |
| 20260901035313 | 72 | 234 | 0.0 | 0.0 | 0.00 | 0.00 | 0.00 | 99 | 1052.5 |
| 20260901034812 | 72 | 234 | 0.0 | 0.0 | 0.00 | 0.00 | 0.00 | 99 | 1052.4 |
| 20260901034307 | 72 | 234 | 0.0 | 0.0 | 0.00 | 0.00 | 0.00 | 99 | 1052.4 |
| 20260901033802 | 73 | 234 | 0.0 | 1.0 | 0.00 | 0.00 | 0.00 | 99 | 1052.4 |
| 20260901033301 | 73 | 234 | 0.0 | 1.0 | 0.00 | 0.00 | 0.00 | 99 | 1052.4 |
| 20260901032800 | 73 | 221 | 0.0 | 0.0 | 0.00 | 0.00 | 0.00 | 99 | 1052.3 |
| 20260901032259 | 73 | 221 | 0.0 | 0.0 | 0.00 | 0.00 | 0.00 | 99 | 1052.2 |
| 20260901031755 | 73 | 221 | 0.0 | 0.0 | 0.00 | 0.00 | 0.00 | 99 | 1052.2 |
| 20260901031251 | 73 | 220 | 0.0 | 0.0 | 0.00 | 0.00 | 0.00 | 99 | 1052.3 |
| 20260901030750 | 73 | 220 | 0.0 | 1.0 | 0.00 | 0.00 | 0.00 | 99 | 1052.2 |
| 20260901030245 | 73 | 228 | 0.0 | 0.0 | 0.00 | 0.00 | 0.00 | 99 | 1052.3 |
| 20260901025745 | 74 | 228 | 0.0 | 0.0 | 0.00 | 0.00 | 0.00 | 99 | 1052.4 |
| 20260901025240 | 74 | 228 | 0.0 | 0.0 | 0.00 | 0.00 | 0.00 | 99 | 1052.3 |
| 20260901024735 | 74 | 228 | 0.0 | 1.0 | 0.00 | 0.00 | 0.00 | 99 | 1052.3 |
| 20260901024234 | 73 | 228 | 0.0 | 0.0 | 0.00 | 0.00 | 0.00 | 99 | 1052.0 |
| 20260901023732 | 73 | 228 | 0.0 | 0.0 | 0.00 | 0.00 | 0.00 | 99 | 1051.8 |
| 20260901023227 | 74 | 228 | 0.0 | 0.0 | 0.00 | 0.00 | 0.00 | 99 | 1052.0 |
| 20260901022723 | 74 | 228 | 0.0 | 0.0 | 0.00 | 0.00 | 0.00 | 98 | 1051.9 |
| 20260901022218 | 74 | 228 | 0.0 | 0.0 | 0.00 | 0.00 | 0.00 | 98 | 1051.9 |
| 20260901021713 | 74 | 228 | 0.0 | 0.0 | 0.00 | 0.00 | 0.00 | 98 | 1051.8 |
| 20260901021209 | 75 | 228 | 0.0 | 0.0 | 0.00 | 0.00 | 0.00 | 98 | 1051.9 |
| 20260901020704 | 75 | 228 | 0.0 | 0.0 | 0.00 | 0.00 | 0.00 | 98 | 1051.9 |
| 20260901020200 | 75 | 228 | 0.0 | 0.0 | 0.00 | 0.00 | 0.00 | 98 | 1051.8 |
| 20260901015654 | 75 | 228 | 0.0 | 0.0 | 0.00 | 0.00 | 0.00 | 98 | 1051.8 |
| 20260901015149 | 75 | 228 | 0.0 | 0.0 | 0.00 | 0.00 | 0.00 | 97 | 1051.8 |
| 20260901014648 | 75 | 228 | 0.0 | 0.0 | 0.00 | 0.00 | 0.00 | 97 | 1051.5 |
| 20260901014144 | 75 | 228 | 0.0 | 0.0 | 0.00 | 0.00 | 0.00 | 97 | 1051.7 |
| 20260901013640 | 75 | 228 | 0.0 | 0.0 | 0.00 | 0.00 | 0.00 | 97 | 1051.6 |
| 20260901013136 | 76 | 228 | 0.0 | 0.0 | 0.00 | 0.00 | 0.00 | 96 | 1051.6 |
| 20260901012631 | 76 | 228 | 0.0 | 0.0 | 0.00 | 0.00 | 0.00 | 96 | 1051.6 |
| 20260901012126 | 76 | 228 | 0.0 | 0.0 | 0.00 | 0.00 | 0.00 | 95 | 1051.5 |
| 20260901011622 | 77 | 218 | 0.0 | 0.0 | 0.00 | 0.00 | 0.00 | 95 | 1051.5 |
| 20260901011120 | 77 | 221 | 0.0 | 0.0 | 0.00 | 0.00 | 0.00 | 95 | 1051.4 |
| 20260901010615 | 77 | 235 | 0.0 | 0.0 | 0.00 | 0.00 | 0.00 | 94 | 1051.3 |
| 20260901010109 | 77 | 235 | 0.0 | 0.0 | 0.00 | 0.00 | 0.00 | 94 | 1051.3 |
| 20260901005604 | 78 | 235 | 0.0 | 0.0 | 0.00 | 0.00 | 0.00 | 93 | 1051.4 |
| 20260901005059 | 78 | 235 | 0.0 | 0.0 | 0.00 | 0.00 | 0.00 | 92 | 1051.3 |
| 20260901004558 | 78 | 234 | 0.0 | 0.0 | 0.00 | 0.00 | 0.00 | 91 | 1051.3 |
| 20260901004053 | 79 | 233 | 0.0 | 0.0 | 0.00 | 0.00 | 0.00 | 91 | 1051.3 |
| 20260901003549 | 79 | 241 | 0.0 | 0.0 | 0.00 | 0.00 | 0.00 | 90 | 1051.3 |
| 20260901003046 | 80 | 241 | 0.0 | 0.0 | 0.00 | 0.00 | 0.00 | 89 | 1051.2 |
| 20260901002546 | 80 | 241 | 0.0 | 0.0 | 0.00 | 0.00 | 0.00 | 88 | 1051.2 |
| 20260901002042 | 80 | 241 | 0.0 | 0.0 | 0.00 | 0.00 | 0.00 | 88 | 1051.2 |
| 20260901001536 | 81 | 244 | 0.0 | 0.0 | 0.00 | 0.00 | 0.00 | 87 | 1051.3 |
| 20260901001031 | 81 | 245 | 0.0 | 1.0 | 0.00 | 0.00 | 0.00 | 86 | 1051.4 |
| 20260901000526 | 82 | 230 | 0.0 | 0.0 | 0.00 | 0.00 | 0.00 | 85 | 1051.1 |
| 20260901000022 | 82 | 228 | 0.0 | 0.0 | 0.00 | 0.00 | 0.00 | 85 | 1051.1 |
| 20260831235515 | 81 | 237 | 0.0 | 0.0 | 0.00 | 0.00 | 0.00 | 85 | 1051.2 |
| 20260831235011 | 82 | 234 | 0.0 | 0.0 | 0.00 | 0.00 | 0.00 | 85 | 1051.2 |
| 20260831234505 | 82 | 230 | 0.0 | 0.0 | 0.00 | 0.00 | 0.00 | 84 | 1051.0 |
| 20260831234001 | 82 | 230 | 0.0 | 0.0 | 0.00 | 0.00 | 0.00 | 84 | 1051.2 |
| 20260831233455 | 82 | 231 | 0.0 | 1.0 | 0.00 | 0.00 | 0.00 | 84 | 1051.3 |
| 20260831232951 | 83 | 232 | 0.0 | 0.0 | 0.00 | 0.00 | 0.00 | 83 | 1051.1 |
| 20260831232446 | 83 | 234 | 0.0 | 1.0 | 0.00 | 0.00 | 0.00 | 83 | 1051.2 |
| 20260831231942 | 83 | 241 | 0.0 | 0.0 | 0.00 | 0.00 | 0.00 | 83 | 1051.2 |
| 20260831231438 | 82 | 244 | 0.0 | 1.0 | 0.00 | 0.00 | 0.00 | 83 | 1051.1 |
| 20260831230934 | 83 | 302 | 4.0 | 4.0 | 0.00 | 0.00 | 0.00 | 82 | 1051.0 |
| 20260831230434 | 83 | 243 | 0.0 | 1.0 | 0.00 | 0.00 | 0.00 | 82 | 1051.1 |
| 20260831225928 | 82 | 236 | 0.0 | 0.0 | 0.00 | 0.00 | 0.00 | 82 | 1051.1 |
| 20260831225425 | 82 | 243 | 1.0 | 1.0 | 0.00 | 0.00 | 0.00 | 82 | 1051.1 |
| 20260831224920 | 82 | 243 | 0.0 | 2.0 | 0.00 | 0.00 | 0.00 | 81 | 1051.1 |
| 20260831224419 | 83 | 242 | 1.0 | 3.0 | 0.00 | 0.00 | 0.00 | 80 | 1050.8 |
| 20260831223913 | 86 | 281 | 1.0 | 2.0 | 0.00 | 0.00 | 0.00 | 78 | 1051.0 |
| 20260831223404 | 86 | 239 | 0.0 | 3.0 | 0.00 | 0.00 | 0.00 | 76 | 1050.9 |
| 20260831222901 | 85 | 276 | 2.0 | 4.0 | 0.00 | 0.00 | 0.00 | 78 | 1050.9 |
| 20260831222356 | 86 | 235 | 0.0 | 2.0 | 0.00 | 0.00 | 0.00 | 78 | 1050.9 |
| 20260831221851 | 86 | 238 | 0.0 | 2.0 | 0.00 | 0.00 | 0.00 | 78 | 1050.9 |
| 20260831221347 | 86 | 222 | 1.0 | 3.0 | 0.00 | 0.00 | 0.00 | 77 | 1050.7 |
| 20260831220841 | 87 | 209 | 1.0 | 6.0 | 0.00 | 0.00 | 0.00 | 76 | 1050.9 |
| 20260831220336 | 86 | 230 | 1.0 | 1.0 | 0.00 | 0.00 | 0.00 | 77 | 1051.0 |
| 20260831215826 | 86 | 293 | 2.0 | 2.0 | 0.00 | 0.00 | 0.00 | 77 | 1050.6 |
| 20260831215322 | 85 | 238 | 2.0 | 6.0 | 0.00 | 0.00 | 0.00 | 80 | 1050.8 |
| 20260831214818 | 86 | 233 | 2.0 | 3.0 | 0.00 | 0.00 | 0.00 | 78 | 1050.7 |
| 20260831214316 | 85 | 261 | 1.0 | 4.0 | 0.00 | 0.00 | 0.00 | 80 | 1050.5 |
| 20260831213810 | 85 | 244 | 1.0 | 3.0 | 0.00 | 0.00 | 0.00 | 79 | 1050.6 |
| 20260831213307 | 87 | 232 | 3.0 | 4.0 | 0.00 | 0.00 | 0.00 | 78 | 1050.7 |
| 20260831212802 | 86 | 232 | 0.0 | 2.0 | 0.00 | 0.00 | 0.00 | 79 | 1050.8 |
| 20260831212259 | 84 | 247 | 1.0 | 2.0 | 0.00 | 0.00 | 0.00 | 84 | 1050.7 |
| 20260831211757 | 83 | 235 | 2.0 | 2.0 | 0.00 | 0.00 | 0.00 | 83 | 1050.8 |
| 20260831211252 | 83 | 235 | 1.0 | 2.0 | 0.00 | 0.00 | 0.00 | 84 | 1050.6 |
| 20260831210752 | 84 | 291 | 2.0 | 3.0 | 0.00 | 0.00 | 0.00 | 81 | 1050.5 |
| 20260831210243 | 86 | 227 | 1.0 | 7.0 | 0.00 | 0.00 | 0.00 | 81 | 1050.5 |
| 20260831205742 | 86 | 301 | 2.0 | 3.0 | 0.00 | 0.00 | 0.00 | 78 | 1050.6 |
| 20260831205239 | 85 | 232 | 0.0 | 1.0 | 0.00 | 0.00 | 0.00 | 81 | 1050.5 |
| 20260831204738 | 85 | 283 | 2.0 | 2.0 | 0.00 | 0.00 | 0.00 | 81 | 1050.4 |
| 20260831204237 | 83 | 240 | 1.0 | 2.0 | 0.00 | 0.00 | 0.00 | 81 | 1050.5 |
| 20260831203737 | 83 | 240 | 3.0 | 3.0 | 0.00 | 0.00 | 0.00 | 83 | 1050.5 |
| 20260831203232 | 83 | 235 | 1.0 | 3.0 | 0.00 | 0.00 | 0.00 | 83 | 1050.5 |
| 20260831202730 | 83 | 245 | 2.0 | 2.0 | 0.00 | 0.00 | 0.00 | 82 | 1050.6 |
| 20260831202225 | 84 | 282 | 1.0 | 2.0 | 0.00 | 0.00 | 0.00 | 81 | 1050.6 |
| 20260831201724 | 84 | 215 | 1.0 | 2.0 | 0.00 | 0.00 | 0.00 | 81 | 1050.7 |
| 20260831201218 | 84 | 238 | 1.0 | 3.0 | 0.00 | 0.00 | 0.00 | 80 | 1050.7 |
| 20260831200714 | 85 | 268 | 1.0 | 2.0 | 0.00 | 0.00 | 0.00 | 79 | 1050.6 |
| 20260831200208 | 84 | 227 | 2.0 | 4.0 | 0.00 | 0.00 | 0.00 | 78 | 1050.6 |
| 20260831195658 | 85 | 302 | 1.0 | 4.0 | 0.00 | 0.00 | 0.00 | 78 | 1050.5 |
| 20260831195154 | 85 | 252 | 1.0 | 3.0 | 0.00 | 0.00 | 0.00 | 82 | 1050.5 |
| 20260831194648 | 86 | 184 | 1.0 | 2.0 | 0.00 | 0.00 | 0.00 | 80 | 1050.3 |
| 20260831194144 | 86 | 248 | 1.0 | 2.0 | 0.00 | 0.00 | 0.00 | 81 | 1050.4 |
| 20260831193638 | 86 | 247 | 2.0 | 3.0 | 0.00 | 0.00 | 0.00 | 79 | 1050.5 |
| 20260831193133 | 86 | 232 | 2.0 | 3.0 | 0.00 | 0.00 | 0.00 | 79 | 1050.2 |
| 20260831192628 | 85 | 235 | 1.0 | 2.0 | 0.00 | 0.00 | 0.00 | 80 | 1050.3 |
| 20260831192124 | 85 | 278 | 2.0 | 2.0 | 0.00 | 0.00 | 0.00 | 82 | 1050.4 |
| 20260831191620 | 84 | 243 | 0.0 | 2.0 | 0.00 | 0.00 | 0.00 | 82 | 1050.2 |
| 20260831191115 | 83 | 220 | 1.0 | 3.0 | 0.00 | 0.00 | 0.00 | 84 | 1050.1 |
| 20260831190610 | 83 | 207 | 2.0 | 3.0 | 0.00 | 0.00 | 0.00 | 85 | 1050.1 |
| 20260831190108 | 82 | 223 | 2.0 | 2.0 | 0.00 | 0.00 | 0.00 | 85 | 1050.2 |
| 20260831185604 | 82 | 260 | 0.0 | 1.0 | 0.00 | 0.00 | 0.00 | 84 | 1049.8 |
| 20260831185100 | 83 | 254 | 1.0 | 1.0 | 0.00 | 0.00 | 0.00 | 85 | 1049.7 |
| 20260831184559 | 83 | 248 | 0.0 | 1.0 | 0.00 | 0.00 | 0.00 | 84 | 1049.8 |
| 20260831184055 | 83 | 249 | 0.0 | 0.0 | 0.00 | 0.00 | 0.00 | 83 | 1049.7 |
| 20260831183554 | 83 | 240 | 0.0 | 1.0 | 0.00 | 0.00 | 0.00 | 82 | 1049.7 |
| 20260831183054 | 83 | 250 | 0.0 | 1.0 | 0.00 | 0.00 | 0.00 | 82 | 1049.9 |
| 20260831182554 | 83 | 225 | 3.0 | 4.0 | 0.00 | 0.00 | 0.00 | 81 | 1050.1 |
| 20260831182050 | 84 | 242 | 1.0 | 2.0 | 0.00 | 0.00 | 0.00 | 80 | 1049.7 |
| 20260831181544 | 84 | 249 | 0.0 | 1.0 | 0.00 | 0.00 | 0.00 | 83 | 1049.5 |
| 20260831181044 | 83 | 234 | 1.0 | 2.0 | 0.00 | 0.00 | 0.00 | 82 | 1049.3 |
| 20260831180539 | 84 | 276 | 1.0 | 1.0 | 0.00 | 0.00 | 0.00 | 80 | 1049.2 |
| 20260831180035 | 84 | 190 | 1.0 | 1.0 | 0.00 | 0.00 | 0.00 | 80 | 1049.2 |
| 20260831175530 | 84 | 216 | 1.0 | 1.0 | 0.00 | 0.00 | 0.00 | 79 | 1049.8 |
| 20260831175026 | 84 | 219 | 2.0 | 4.0 | 0.00 | 0.00 | 0.00 | 78 | 1050.0 |
| 20260831174520 | 84 | 268 | 2.0 | 3.0 | 0.00 | 0.00 | 0.00 | 77 | 1050.0 |
| 20260831174014 | 84 | 275 | 1.0 | 1.0 | 0.00 | 0.00 | 0.00 | 79 | 1050.1 |
| 20260831173512 | 84 | 279 | 1.0 | 2.0 | 0.00 | 0.00 | 0.00 | 78 | 1050.2 |
| 20260831173009 | 84 | 243 | 1.0 | 2.0 | 0.00 | 0.00 | 0.00 | 79 | 1050.3 |
| 20260831172504 | 84 | 241 | 2.0 | 4.0 | 0.00 | 0.00 | 0.00 | 80 | 1050.7 |
| 20260831171959 | 84 | 271 | 2.0 | 2.0 | 0.00 | 0.00 | 0.00 | 78 | 1050.4 |
| 20260831171454 | 84 | 219 | 1.0 | 2.0 | 0.00 | 0.00 | 0.00 | 80 | 1050.5 |
| 20260831170951 | 84 | 221 | 1.0 | 4.0 | 0.00 | 0.00 | 0.00 | 78 | 1050.7 |
| 20260831170447 | 86 | 285 | 2.0 | 3.0 | 0.00 | 0.00 | 0.00 | 77 | 1050.5 |
| 20260831165944 | 85 | 253 | 1.0 | 2.0 | 0.00 | 0.00 | 0.00 | 79 | 1050.5 |
| 20260831165439 | 85 | 238 | 0.0 | 2.0 | 0.00 | 0.00 | 0.00 | 81 | 1050.4 |
| 20260831164936 | 84 | 232 | 0.0 | 3.0 | 0.00 | 0.00 | 0.00 | 79 | 1050.4 |
| 20260831164427 | 85 | 232 | 0.0 | 2.0 | 0.00 | 0.00 | 0.00 | 80 | 1050.4 |
| 20260831163927 | 85 | 197 | 1.0 | 2.0 | 0.00 | 0.00 | 0.00 | 77 | 1050.5 |
| 20260831163422 | 85 | 221 | 1.0 | 3.0 | 0.00 | 0.00 | 0.00 | 78 | 1050.4 |
| 20260831162920 | 85 | 230 | 2.0 | 3.0 | 0.00 | 0.00 | 0.00 | 80 | 1050.4 |
| 20260831162416 | 85 | 225 | 2.0 | 3.0 | 0.00 | 0.00 | 0.00 | 78 | 1050.6 |
| 20260831161914 | 84 | 236 | 1.0 | 3.0 | 0.00 | 0.00 | 0.00 | 78 | 1050.3 |
| 20260831161411 | 85 | 239 | 3.0 | 4.0 | 0.00 | 0.00 | 0.00 | 76 | 1050.3 |
| 20260831160907 | 85 | 211 | 1.0 | 2.0 | 0.00 | 0.00 | 0.00 | 78 | 1050.2 |
| 20260831160401 | 85 | 251 | 1.0 | 1.0 | 0.00 | 0.00 | 0.00 | 79 | 1050.2 |
| 20260831155856 | 83 | 230 | 1.0 | 2.0 | 0.00 | 0.00 | 0.00 | 80 | 1050.4 |
| 20260831155356 | 83 | 239 | 1.0 | 7.0 | 0.00 | 0.00 | 0.00 | 79 | 1050.3 |
| 20260831154851 | 83 | 230 | 4.0 | 7.0 | 0.00 | 0.00 | 0.00 | 80 | 1050.2 |
| 20260831154348 | 83 | 226 | 1.0 | 6.0 | 0.00 | 0.00 | 0.00 | 80 | 1050.2 |
| 20260831153846 | 83 | 235 | 4.0 | 6.0 | 0.00 | 0.00 | 0.00 | 79 | 1050.0 |
| 20260831153342 | 83 | 225 | 2.0 | 6.0 | 0.00 | 0.00 | 0.00 | 79 | 1050.1 |
| 20260831152833 | 83 | 216 | 2.0 | 2.0 | 0.00 | 0.00 | 0.00 | 79 | 1050.2 |
| 20260831152329 | 83 | 244 | 0.0 | 1.0 | 0.00 | 0.00 | 0.00 | 79 | 1050.0 |
| 20260831151823 | 82 | 237 | 1.0 | 1.0 | 0.00 | 0.00 | 0.00 | 80 | 1049.9 |
| 20260831151322 | 82 | 234 | 0.0 | 2.0 | 0.00 | 0.00 | 0.00 | 79 | 1049.9 |
| 20260831150818 | 81 | 235 | 0.0 | 3.0 | 0.00 | 0.00 | 0.00 | 82 | 1049.7 |
| 20260831150314 | 81 | 230 | 3.0 | 4.0 | 0.00 | 0.00 | 0.00 | 82 | 1049.9 |
| 20260831145812 | 80 | 263 | 2.0 | 3.0 | 0.00 | 0.00 | 0.00 | 82 | 1049.8 |
| 20260831145309 | 81 | 195 | 3.0 | 6.0 | 0.00 | 0.00 | 0.00 | 81 | 1049.8 |
| 20260831144804 | 80 | 199 | 1.0 | 2.0 | 0.00 | 0.00 | 0.00 | 82 | 1049.9 |
| 20260831144300 | 79 | 250 | 2.0 | 4.0 | 0.00 | 0.00 | 0.00 | 84 | 1049.9 |
| 20260831143759 | 79 | 230 | 2.0 | 4.0 | 0.00 | 0.00 | 0.00 | 85 | 1049.7 |
| 20260831143254 | 78 | 207 | 3.0 | 4.0 | 0.00 | 0.00 | 0.00 | 85 | 1049.7 |
| 20260831142750 | 78 | 210 | 2.0 | 3.0 | 0.00 | 0.00 | 0.00 | 87 | 1049.6 |
| 20260831142245 | 77 | 228 | 2.0 | 4.0 | 0.00 | 0.00 | 0.00 | 86 | 1049.6 |
| 20260831141739 | 77 | 202 | 4.0 | 4.0 | 0.00 | 0.00 | 0.00 | 87 | 1049.5 |
| 20260831141234 | 77 | 213 | 2.0 | 4.0 | 0.00 | 0.00 | 0.00 | 87 | 1049.6 |
| 20260831140735 | 77 | 245 | 1.0 | 2.0 | 0.00 | 0.00 | 0.00 | 86 | 1049.6 |
| 20260831140229 | 76 | 237 | 1.0 | 3.0 | 0.00 | 0.00 | 0.00 | 87 | 1049.6 |
| 20260831135727 | 75 | 237 | 2.0 | 4.0 | 0.00 | 0.00 | 0.00 | 89 | 1049.4 |
| 20260831135223 | 75 | 226 | 3.0 | 3.0 | 0.00 | 0.00 | 0.00 | 89 | 1049.5 |
| 20260831134718 | 75 | 225 | 3.0 | 3.0 | 0.00 | 0.00 | 0.00 | 88 | 1049.4 |
| 20260831134215 | 75 | 292 | 2.0 | 2.0 | 0.00 | 0.00 | 0.00 | 89 | 1049.4 |
| 20260831133713 | 74 | 218 | 3.0 | 3.0 | 0.00 | 0.00 | 0.00 | 90 | 1049.0 |
| 20260831133208 | 74 | 216 | 2.0 | 3.0 | 0.00 | 0.00 | 0.00 | 91 | 1048.7 |
| 20260831132703 | 73 | 172 | 2.0 | 3.0 | 0.00 | 0.00 | 0.00 | 91 | 1048.7 |
| 20260831132202 | 73 | 208 | 4.0 | 4.0 | 0.00 | 0.00 | 0.00 | 91 | 1048.9 |
| 20260831131657 | 73 | 208 | 2.0 | 3.0 | 0.00 | 0.00 | 0.00 | 92 | 1049.0 |
| 20260831131154 | 72 | 227 | 1.0 | 6.0 | 0.00 | 0.00 | 0.00 | 93 | 1048.9 |
| 20260831130649 | 71 | 178 | 2.0 | 4.0 | 0.00 | 0.00 | 0.00 | 94 | 1048.9 |
| 20260831130144 | 71 | 195 | 1.0 | 4.0 | 0.00 | 0.00 | 0.00 | 95 | 1049.0 |
| 20260831125642 | 70 | 201 | 0.0 | 3.0 | 0.00 | 0.00 | 0.00 | 97 | 1049.0 |
| 20260831125138 | 70 | 225 | 0.0 | 2.0 | 0.00 | 0.00 | 0.00 | 98 | 1048.9 |
| 20260831124634 | 69 | 220 | 0.0 | 1.0 | 0.00 | 0.00 | 0.00 | 99 | 1048.8 |
| 20260831124130 | 69 | 225 | 0.0 | 0.0 | 0.00 | 0.00 | 0.00 | 99 | 1048.8 |
| 20260831123629 | 68 | 184 | 0.0 | 2.0 | 0.00 | 0.00 | 0.00 | 99 | 1048.9 |
| 20260831123128 | 68 | 227 | 0.0 | 2.0 | 0.00 | 0.00 | 0.00 | 99 | 1048.7 |
| 20260831122628 | 68 | 226 | 0.0 | 0.0 | 0.00 | 0.00 | 0.00 | 99 | 1048.7 |
| 20260831122125 | 68 | 235 | 0.0 | 1.0 | 0.00 | 0.00 | 0.00 | 99 | 1048.5 |
| 20260831121624 | 68 | 237 | 0.0 | 0.0 | 0.00 | 0.00 | 0.00 | 99 | 1048.4 |
| 20260831121121 | 68 | 221 | 0.0 | 0.0 | 0.00 | 0.00 | 0.00 | 99 | 1048.5 |
| 20260831120620 | 68 | 234 | 0.0 | 0.0 | 0.00 | 0.00 | 0.00 | 99 | 1048.2 |
| 20260831120115 | 68 | 229 | 0.0 | 2.0 | 0.00 | 0.00 | 0.00 | 99 | 1048.2 |
| 20260831115611 | 68 | 228 | 0.0 | 0.0 | 0.00 | 0.00 | 0.00 | 99 | 1048.0 |
| 20260831115107 | 68 | 233 | 0.0 | 0.0 | 0.00 | 0.00 | 0.00 | 99 | 1048.3 |
| 20260831114605 | 68 | 205 | 0.0 | 0.0 | 0.00 | 0.00 | 0.00 | 99 | 1048.3 |
| 20260831114101 | 67 | 230 | 0.0 | 0.0 | 0.00 | 0.00 | 0.00 | 99 | 1048.4 |
| 20260831113559 | 68 | 230 | 0.0 | 0.0 | 0.00 | 0.00 | 0.00 | 99 | 1048.4 |
| 20260831113056 | 68 | 230 | 0.0 | 0.0 | 0.00 | 0.00 | 0.00 | 99 | 1048.2 |
| 20260831112554 | 68 | 234 | 0.0 | 0.0 | 0.00 | 0.00 | 0.00 | 99 | 1048.1 |
| 20260831112050 | 68 | 236 | 0.0 | 0.0 | 0.00 | 0.00 | 0.00 | 99 | 1048.2 |
| 20260831111546 | 68 | 222 | 0.0 | 0.0 | 0.00 | 0.00 | 0.00 | 99 | 1048.2 |
| 20260831111041 | 68 | 237 | 0.0 | 0.0 | 0.00 | 0.00 | 0.00 | 99 | 1047.9 |
| 20260831110537 | 68 | 237 | 0.0 | 0.0 | 0.00 | 0.00 | 0.00 | 99 | 1047.9 |
| 20260831110032 | 68 | 237 | 0.0 | 0.0 | 0.00 | 0.00 | 0.00 | 99 | 1047.9 |
| 20260831105531 | 68 | 237 | 0.0 | 0.0 | 0.00 | 0.00 | 0.00 | 99 | 1047.8 |
| 20260831105026 | 68 | 223 | 0.0 | 0.0 | 0.00 | 0.00 | 0.00 | 99 | 1048.1 |
| 20260831104522 | 68 | 223 | 0.0 | 0.0 | 0.00 | 0.00 | 0.00 | 99 | 1048.1 |
| 20260831104019 | 68 | 223 | 0.0 | 0.0 | 0.00 | 0.00 | 0.00 | 99 | 1048.1 |
| 20260831103519 | 68 | 231 | 0.0 | 0.0 | 0.00 | 0.00 | 0.00 | 99 | 1048.0 |
| 20260831103015 | 68 | 231 | 0.0 | 0.0 | 0.00 | 0.00 | 0.00 | 99 | 1048.1 |
| 20260831102514 | 68 | 238 | 0.0 | 0.0 | 0.00 | 0.00 | 0.00 | 99 | 1048.1 |
| 20260831102009 | 68 | 239 | 0.0 | 0.0 | 0.00 | 0.00 | 0.00 | 99 | 1048.0 |
| 20260831101504 | 69 | 228 | 0.0 | 0.0 | 0.00 | 0.00 | 0.00 | 99 | 1048.1 |
| 20260831101000 | 68 | 228 | 0.0 | 0.0 | 0.00 | 0.00 | 0.00 | 99 | 1047.9 |
| 20260831100456 | 69 | 228 | 0.0 | 0.0 | 0.00 | 0.00 | 0.00 | 99 | 1048.0 |
| 20260831095951 | 69 | 228 | 0.0 | 0.0 | 0.00 | 0.00 | 0.00 | 99 | 1047.9 |
| 20260831095451 | 69 | 228 | 0.0 | 0.0 | 0.00 | 0.00 | 0.00 | 99 | 1048.1 |
| 20260831094945 | 69 | 228 | 0.0 | 0.0 | 0.00 | 0.00 | 0.00 | 99 | 1048.0 |
| 20260831094442 | 69 | 229 | 0.0 | 0.0 | 0.00 | 0.00 | 0.00 | 99 | 1048.1 |
| 20260831093937 | 69 | 229 | 0.0 | 0.0 | 0.00 | 0.00 | 0.00 | 98 | 1048.2 |
| 20260831093432 | 69 | 229 | 0.0 | 0.0 | 0.00 | 0.00 | 0.00 | 98 | 1048.3 |
| 20260831092929 | 69 | 232 | 0.0 | 0.0 | 0.00 | 0.00 | 0.00 | 98 | 1048.1 |
| 20260831092424 | 70 | 232 | 0.0 | 1.0 | 0.00 | 0.00 | 0.00 | 98 | 1048.1 |
| 20260831091919 | 70 | 228 | 0.0 | 2.0 | 0.00 | 0.00 | 0.00 | 98 | 1048.2 |
| 20260831091414 | 70 | 215 | 1.0 | 1.0 | 0.00 | 0.00 | 0.00 | 98 | 1048.1 |
| 20260831090909 | 70 | 236 | 0.0 | 1.0 | 0.00 | 0.00 | 0.00 | 98 | 1048.0 |
| 20260831090406 | 70 | 236 | 0.0 | 0.0 | 0.00 | 0.00 | 0.00 | 98 | 1048.1 |
| 20260831085902 | 70 | 221 | 1.0 | 1.0 | 0.00 | 0.00 | 0.00 | 98 | 1048.0 |
| 20260831085357 | 70 | 225 | 0.0 | 2.0 | 0.00 | 0.00 | 0.00 | 98 | 1047.9 |
| 20260831084856 | 70 | 240 | 0.0 | 1.0 | 0.00 | 0.00 | 0.00 | 98 | 1048.0 |
| 20260831084352 | 70 | 234 | 0.0 | 2.0 | 0.00 | 0.00 | 0.00 | 98 | 1047.8 |
| 20260831083849 | 71 | 230 | 0.0 | 0.0 | 0.00 | 0.00 | 0.00 | 98 | 1048.0 |
| 20260831083344 | 71 | 237 | 1.0 | 2.0 | 0.00 | 0.00 | 0.00 | 98 | 1048.0 |
| 20260831082843 | 71 | 219 | 1.0 | 2.0 | 0.00 | 0.00 | 0.00 | 97 | 1048.1 |
| 20260831082338 | 71 | 233 | 0.0 | 2.0 | 0.00 | 0.00 | 0.00 | 97 | 1048.1 |
| 20260831081833 | 71 | 227 | 2.0 | 2.0 | 0.00 | 0.00 | 0.00 | 97 | 1048.0 |
| 20260831081329 | 71 | 224 | 1.0 | 1.0 | 0.00 | 0.00 | 0.00 | 97 | 1048.1 |
| 20260831080825 | 71 | 221 | 0.0 | 2.0 | 0.00 | 0.00 | 0.00 | 97 | 1047.9 |
| 20260831080325 | 71 | 226 | 1.0 | 3.0 | 0.00 | 0.00 | 0.00 | 97 | 1047.9 |
| 20260831075820 | 71 | 231 | 1.0 | 1.0 | 0.00 | 0.00 | 0.00 | 97 | 1047.9 |
| 20260831075315 | 72 | 229 | 2.0 | 3.0 | 0.00 | 0.00 | 0.00 | 97 | 1048.0 |
| 20260831074810 | 72 | 211 | 2.0 | 2.0 | 0.00 | 0.00 | 0.00 | 96 | 1048.0 |
| 20260831074309 | 72 | 217 | 2.0 | 2.0 | 0.00 | 0.00 | 0.00 | 96 | 1048.0 |
| 20260831073805 | 72 | 229 | 3.0 | 4.0 | 0.00 | 0.00 | 0.00 | 96 | 1048.0 |
| 20260831073303 | 72 | 228 | 0.0 | 2.0 | 0.00 | 0.00 | 0.00 | 96 | 1047.9 |
| 20260831072759 | 72 | 250 | 3.0 | 4.0 | 0.00 | 0.00 | 0.00 | 96 | 1048.1 |
| 20260831072255 | 72 | 245 | 1.0 | 2.0 | 0.00 | 0.00 | 0.00 | 96 | 1048.1 |
| 20260831071750 | 72 | 222 | 1.0 | 2.0 | 0.00 | 0.00 | 0.00 | 96 | 1048.0 |
| 20260831071245 | 72 | 237 | 1.0 | 2.0 | 0.00 | 0.00 | 0.00 | 96 | 1048.0 |
| 20260831070745 | 72 | 226 | 0.0 | 2.0 | 0.00 | 0.00 | 0.00 | 96 | 1047.9 |
| 20260831070244 | 72 | 181 | 3.0 | 3.0 | 0.00 | 0.00 | 0.00 | 96 | 1048.2 |
| 20260831065743 | 72 | 224 | 2.0 | 2.0 | 0.00 | 0.00 | 0.00 | 96 | 1048.0 |
| 20260831065241 | 72 | 210 | 1.0 | 2.0 | 0.00 | 0.00 | 0.00 | 96 | 1048.2 |
| 20260831064737 | 72 | 195 | 2.0 | 3.0 | 0.00 | 0.00 | 0.00 | 96 | 1048.1 |
| 20260831064231 | 72 | 182 | 4.0 | 6.0 | 0.00 | 0.00 | 0.00 | 97 | 1048.1 |
| 20260831063727 | 72 | 233 | 0.0 | 3.0 | 0.00 | 0.00 | 0.00 | 96 | 1048.2 |
| 20260831063223 | 72 | 226 | 2.0 | 2.0 | 0.00 | 0.00 | 0.00 | 96 | 1048.3 |
| 20260831062722 | 72 | 221 | 2.0 | 3.0 | 0.00 | 0.00 | 0.00 | 96 | 1048.4 |
| 20260831062217 | 72 | 227 | 0.0 | 2.0 | 0.00 | 0.00 | 0.00 | 96 | 1048.4 |
| 20260831061715 | 72 | 174 | 1.0 | 2.0 | 0.00 | 0.00 | 0.00 | 96 | 1048.4 |
| 20260831061211 | 72 | 209 | 0.0 | 1.0 | 0.00 | 0.00 | 0.00 | 96 | 1048.6 |
| 20260831060707 | 73 | 266 | 1.0 | 3.0 | 0.00 | 0.00 | 0.00 | 96 | 1048.5 |
| 20260831060206 | 73 | 208 | 2.0 | 3.0 | 0.00 | 0.00 | 0.00 | 95 | 1048.5 |
| 20260831055701 | 73 | 211 | 0.0 | 3.0 | 0.00 | 0.00 | 0.00 | 95 | 1048.6 |
| 20260831055155 | 73 | 235 | 1.0 | 4.0 | 0.00 | 0.00 | 0.00 | 95 | 1048.6 |
| 20260831054655 | 73 | 238 | 0.0 | 2.0 | 0.00 | 0.00 | 0.00 | 95 | 1048.7 |
| 20260831054155 | 73 | 201 | 2.0 | 3.0 | 0.00 | 0.00 | 0.00 | 95 | 1048.6 |
| 20260831053650 | 73 | 193 | 1.0 | 2.0 | 0.00 | 0.00 | 0.00 | 95 | 1048.6 |
| 20260831053149 | 73 | 225 | 1.0 | 2.0 | 0.00 | 0.00 | 0.00 | 94 | 1048.6 |
| 20260831052648 | 73 | 162 | 4.0 | 6.0 | 0.00 | 0.00 | 0.00 | 94 | 1048.6 |
| 20260831052147 | 73 | 201 | 1.0 | 3.0 | 0.00 | 0.00 | 0.00 | 94 | 1048.6 |
| 20260831051645 | 73 | 234 | 1.0 | 4.0 | 0.00 | 0.00 | 0.00 | 94 | 1048.6 |
| 20260831051144 | 73 | 219 | 1.0 | 3.0 | 0.00 | 0.00 | 0.00 | 94 | 1048.7 |
| 20260831050639 | 73 | 235 | 1.0 | 4.0 | 0.00 | 0.00 | 0.00 | 93 | 1048.8 |
| 20260831050138 | 74 | 212 | 1.0 | 4.0 | 0.00 | 0.00 | 0.00 | 93 | 1048.7 |